Location: Bremen
(53.0793°N, 8.8017°E)
Time: 09:35:45
(UTC+01:00)

Transit 2A - Pass Details

Date: 04 December 2021
Orbit: 591 x 966 km, 66.7° (Epoch: 26 January)

Event Time Altitude Azimuth Distance (km) Brightness Sun altitude
Exits shadow 04:57:57 23° 353° (N) 1,909 7.9 -29.1°
Maximum altitude 04:58:28 24° 1° (N) 1,902 8.0 -29.0°
Drops below altitude 10° 05:03:29 10° 52° (NE) 2,715 9.4 -28.3°
Sets 05:06:39 0° 67° (ENE) 3,655 10.5 -27.8°
